Troutdale, OR

4:53 PM PST on February 19, 2017 (GMT -0800)
Portland-Troutdale

Weather History for KTTD - May, 2014

Change the Weather History Date:

Monday, May 5, 2014

  Actual Average Record
Temperature  
Mean Temperature 58 °F 55 °F  
Max Temperature 64 °F 66 °F 90 °F (1992)
Min Temperature 51 °F 44 °F 27 °F (2007)
Degree Days  
Heating Degree Days 8 10  
Month to date heating degree days 54  
Cooling Degree Days 0 0  
Month to date cooling degree days 0  
Growing Degree Days 8 (Base 50)    
Moisture  
Dew Point 45 °F    
Average Humidity 69    
Maximum Humidity 88    
Minimum Humidity 43    
Precipitation  
Precipitation 0.04 in 0.10 in 0.96 in (1979)
Month to date precipitation 0.50  
Year to date precipitation 20.26  
Sea Level Pressure  
Sea Level Pressure 29.99 in    
Wind  
Wind Speed 6 mph (WSW)    
Max Wind Speed 12 mph    
Max Gust Speed 17 mph    
Visibility 10 miles    
Events Rain    
T = Trace of Precipitation, MM = Missing Value Source: NWS Daily Summary

Daily Weather History Graph

Daily Weather History Graph

Search for Another Location

Airport or City:

Trip Planner

Search our weather history database for the weather conditions in past years. The results will help you decide how hot, cold, wet, or windy it might be!

Date:

Astronomy

May. 05, 2014 Rise Set
Actual Time 5:51 AM PDT 8:21 PM PDT
Civil Twilight 5:18 AM PDT 8:55 PM PDT
Nautical Twilight 4:36 AM PDT 9:37 PM PDT
Astronomical Twilight 3:49 AM PDT 10:24 PM PDT
Moon 11:17 AM PDT (5/5) 1:08 AM PDT (5/5)
Length of Visible Light 15h 36m
Length of Day
14h 30m
Waxing Crescent, 37% of the Moon is Illuminated
May 5
Waxing Crescent
May 6
First Quarter
May 14
Full
May 21
Last Quarter
May 28
New

Hourly Weather History & Observations

Time (PDT) Temp. Dew Point Humidity Pressure Visibility Wind Dir Wind Speed Gust Speed Precip Events Conditions
12:53 AM 53.1 °F 48.0 °F 83% 29.94 in 10.0 mi WSW 3.5 mph - 0.00 in   Overcast
1:53 AM 52.0 °F 46.9 °F 83% 29.94 in 10.0 mi SW 8.1 mph - N/A   Overcast
2:50 AM 51.8 °F 48.2 °F 88% 29.94 in 7.0 mi WSW 5.8 mph - 0.00 in Rain Light Rain
2:53 AM 52.0 °F 48.0 °F 86% 29.94 in 7.0 mi WSW 4.6 mph - 0.00 in Rain Light Rain
3:09 AM 52.0 °F 48.0 °F 86% 29.95 in 5.0 mi WSW 6.9 mph - 0.04 in Rain Light Rain
3:53 AM 52.0 °F 48.0 °F 86% 29.96 in 10.0 mi SW 5.8 mph - 0.04 in   Overcast
4:53 AM 51.1 °F 46.9 °F 86% 29.96 in 10.0 mi SW 4.6 mph - 0.00 in   Overcast
5:53 AM 51.1 °F 46.9 °F 86% 29.97 in 10.0 mi SW 3.5 mph - N/A   Overcast
6:53 AM 52.0 °F 46.9 °F 83% 29.98 in 10.0 mi SSW 9.2 mph - N/A   Overcast
7:53 AM 52.0 °F 46.9 °F 83% 30.00 in 10.0 mi SW 9.2 mph - N/A   Overcast
8:53 AM 54.0 °F 46.9 °F 77% 30.01 in 10.0 mi SSW 9.2 mph - N/A   Overcast
9:53 AM 55.9 °F 45.0 °F 67% 30.02 in 10.0 mi SW 8.1 mph - N/A   Mostly Cloudy
11:53 AM 57.9 °F 42.1 °F 56% 30.02 in 10.0 mi SW 5.8 mph - 0.00 in Rain Light Rain
12:53 PM 61.0 °F 43.0 °F 52% 30.01 in 10.0 mi SSW 8.1 mph - 0.00 in   Mostly Cloudy
1:53 PM 59.0 °F 43.0 °F 55% 30.01 in 10.0 mi WNW 8.1 mph - N/A   Mostly Cloudy
2:53 PM 59.0 °F 43.0 °F 55% 30.01 in 10.0 mi West 3.5 mph - N/A   Overcast
3:53 PM 64.0 °F 42.1 °F 45% 29.99 in 10.0 mi Variable 4.6 mph - N/A   Mostly Cloudy
4:53 PM 63.0 °F 39.9 °F 43% 29.99 in 10.0 mi Variable 4.6 mph - N/A   Mostly Cloudy
5:53 PM 63.0 °F 42.1 °F 46% 29.99 in 10.0 mi West 11.5 mph 17.3 mph N/A   Scattered Clouds
6:53 PM 60.1 °F 44.1 °F 55% 30.01 in 10.0 mi West 6.9 mph - N/A   Clear
7:53 PM 57.9 °F 43.0 °F 58% 30.02 in 10.0 mi West 3.5 mph - N/A   Partly Cloudy
9:53 PM 55.9 °F 45.0 °F 67% 30.06 in 10.0 mi Variable 5.8 mph - N/A   Scattered Clouds
10:53 PM 55.9 °F 45.0 °F 67% 30.06 in 10.0 mi Calm Calm - N/A   Overcast
11:53 PM 54.0 °F 46.0 °F 75% 30.06 in 10.0 mi Calm Calm - N/A   Overcast